Zurück zum Katalog

COSMOS 1524

AktivNavigationLEO
NORAD 14613·PAYLOAD·🇷🇺 Russia

Gestartet Jan 5, 1984 von Plesetsk Cosmodrome

Loading…

Nächste Überflüge (nächste 24 Stunden)

TLE

AktuellSource: Space-Track

Epoche: Sep 14, 2026, 12:28 UTC

1 14613U 84001C   26257.51949863 -.00000018  00000-0 -81336-5 0  9992
2 14613  74.0066 289.4629 0031641 170.6454 343.0158 12.56748465958523

Verfolge COSMOS 1524 in Echtzeit mit AllMySat

Download on the App Store